Location: Frohen-le-Petit
(50.1975°N, 2.2011°E)
Time: 20:55:15
(UTC+00:00)

Daily predictions for brighter satellites

Satellite Brightness Start Highest point End
(mag) Time Altitude Azimuth Time Altitude Azimuth Time Altitude Azimuth
NOSS 3-4 (A) 4.1 18:13:42 10° NW 18:20:04 51° NE 18:27:27 10° ESE
NOSS 3-4 (C) 4.1 18:13:48 10° NW 18:20:10 51° NE 18:27:32 10° ESE
Cosmos 1400 Rocket 4.5 18:21:57 10° NNW 18:25:27 37° W 18:28:55 10° SSW
CZ-4B R/B 3.9 18:22:38 10° SE 18:26:10 29° ENE 18:29:48 10° N
Meteor 1-13 Rocket 4.4 18:20:48 10° N 18:26:33 57° ENE 18:32:09 10° SSE
Landsat 7 4.1 18:25:27 10° S 18:30:09 75° WSW 18:34:53 10° NNW
NOSS 0 Rocket 4.2 18:26:19 10° SSW 18:32:34 81° WNW 18:38:52 10° NNE
Cosmos 1975 4.3 18:32:46 10° SE 18:35:11 16° E 18:37:36 10° NE
Resurs 01 Rocket 2.6 18:31:46 10° ESE 18:35:33 29° ENE 18:39:21 10° N
Cosmos 1707 3.0 18:35:08 10° NNW 18:38:41 65° W 18:42:10 10° S
Cosmos 2034 Rocket 4.2 18:39:50 10° SSE 18:45:39 46° E 18:51:29 10° NNE
USA 306 3.1 18:42:40 10° WNW 18:45:41 42° N 18:48:52 12° ENE
ISS -3.6 18:42:50 10° W 18:46:10 70° N 18:49:13 12° ENE
Meteor PRIRODA 3.4 18:44:15 10° SSE 18:47:28 56° ENE 18:50:42 10° N
Cosmos 2208 Rocket 4.0 18:45:55 10° SSW 18:51:10 70° ESE 18:56:32 10° NNE
GENESIS II 4.1 18:49:35 10° SW 18:53:04 72° NW 18:56:36 10° NE
Cosmos 1733 2.9 18:50:58 10° S 18:54:23 88° W 18:57:50 10° N
ACS3 Solar Sail 2.5 18:49:08 10° SE 18:54:56 37° ENE 19:00:44 10° N
SAR-Lupe-2 3.6 18:51:28 10° SSE 18:55:02 84° WSW 18:58:39 10° NNW
SL-16 R/B 2.6 18:49:55 10° S 18:55:08 40° ESE 19:00:23 10° NE
Cosmos 1315 Rocket 2.7 18:52:40 10° NNW 18:56:41 87° E 19:00:38 10° SSE
Cosmos 1805 3.4 18:54:39 10° SSE 18:58:06 43° E 19:01:36 10° NNE
Cosmos 1536 3.1 18:57:54 10° SSW 19:01:43 67° WNW 19:05:34 10° N
Resurs 1-3 3.8 18:58:59 10° S 19:03:19 73° WSW 19:07:39 10° NNW
Cosmos 2278 Rocket 4.4 19:01:42 10° NW 19:06:22 27° WSW 19:11:00 10° SSW
SPOT 1/Viking Rocket 3.7 19:01:44 10° SSE 19:06:54 79° WSW 19:12:05 10° NNW
Cosmos 1428 Rocket 4.4 19:01:36 10° N 19:07:43 72° ENE 19:13:50 10° SSE
ATLAS CENTAUR R/B 2.7 19:04:30 10° WSW 19:07:53 36° NW 19:11:26 10° NNE
Cosmos 1515 Rocket 4.5 19:03:46 10° NNW 19:08:00 51° W 19:12:15 10° S
Cosmos 1943 4.5 19:07:43 18° ESE 19:08:26 18° E 19:12:06 10° ENE
Meteor 1-11 Rocket 3.6 19:02:53 10° S 19:08:27 86° ESE 19:14:00 10° NNE
SL-14 R/B 3.2 19:05:14 10° N 19:09:01 59° ENE 19:12:47 10° SSE
ATLAS 2AS CENTAUR R/B 4.2 19:03:54 10° NW 19:09:45 27° N 19:15:25 10° ENE
Meteor 2-9 Rocket 4.1 19:06:30 10° S 19:11:53 81° E 19:17:28 10° NNE
Meteor 1-21 4.4 19:08:20 10° N 19:14:03 58° ENE 19:19:45 10° SSE
ADEOS 3.9 19:08:59 10° S 19:14:11 69° WSW 19:19:25 10° NNW
CSL-04 Rocket 3.7 19:11:57 11° SSE 19:17:01 59° ENE 19:22:13 10° N
CZ-4B DEB 4.4 19:13:11 10° SSE 19:18:42 77° WSW 19:24:12 10° NNW
CZ-4B R/B 3.1 19:13:32 10° SSE 19:18:51 66° ENE 19:24:09 10° N
Cosmos 1500 Rocket 3.5 19:19:14 10° S 19:23:35 89° WNW 19:27:56 10° N
USA 186 1.7 19:24:40 19° SSE 19:26:54 88° ENE 19:30:08 10° NNW
CZ-4B R/B 4.3 19:24:49 10° S 19:29:27 49° W 19:34:14 10° NNW
SJ-6B 3.9 19:26:32 10° S 19:29:56 40° W 19:33:22 10° NNW
ARGOS Delta rocket 4.3 19:25:20 10° S 19:30:07 61° W 19:34:40 10° NNW
Cosmos 2195 Rocket 4.5 19:25:29 10° N 19:31:38 88° W 19:37:49 10° S
Cosmos 773 Rocket 3.9 19:26:30 10° SSW 19:31:48 86° ESE 19:37:07 10° NNE
Cosmos 1743 Rocket 3.4 19:29:13 10° S 19:33:33 86° E 19:37:57 10° N
Cosmos 2237 Rocket 3.5 19:28:19 10° WSW 19:33:39 43° NW 19:39:01 10° NNE
Cosmos 1408 Rocket 4.4 19:31:19 10° SSW 19:35:38 54° WNW 19:40:01 10° N
SL-08 R/B 3.9 19:31:27 10° N 19:36:20 61° WNW 19:41:09 10° SSW
Cosmos 2026 Rocket 3.9 19:30:30 10° N 19:36:44 86° E 19:42:50 10° S
NOSS 3-3 (C) 4.2 19:31:31 10° SW 19:37:02 69° NW 19:43:38 10° NE
Cosmos 1943 Rocket 4.5 19:33:01 10° NW 19:37:10 22° WSW 19:41:20 10° SSW
Helios 1A 3.2 19:33:24 10° N 19:37:28 68° WNW 19:41:31 10° SSW
USA 267 3.9 19:31:23 10° ENE 19:37:42 52° N 19:44:01 10° W
SeaSat 1 3.6 19:34:48 10° NNE 19:39:29 46° NW 19:44:10 10° WSW
Cosmos 724 4.2 19:33:54 10° SW 19:39:41 84° SE 19:45:32 10° NE
Cosmos 1766 3.6 19:41:42 38° ENE 19:41:42 38° ENE 19:44:44 10° NNE
Tiangong 0.2 19:40:11 10° SSW 19:41:06 14° SSW 19:41:06 14° SSW
Sich 1 3.5 19:38:11 10° SSW 19:42:27 63° WNW 19:46:47 10° N
Okean O Rocket 1.6 19:41:02 30° SSE 19:43:09 67° ENE 19:47:32 10° N
CARTOSAT-1 3.8 19:40:01 12° S 19:43:54 68° W 19:48:09 10° NNW
USA 32 4.2 19:38:59 10° N 19:44:14 75° W 19:49:27 10° S
GEOS 3 Rocket 3.6 19:41:58 30° SE 19:44:36 79° NE 19:49:48 10° NW
NOSS 3-3 (A) 4.4 19:41:41 10° WSW 19:47:11 59° NW 19:53:45 10° NE
Cosmos 1092 Rocket 4.1 19:40:58 10° N 19:47:21 83° W 19:53:41 10° S
CZ-4 R/B 2.7 19:47:08 10° SSW 19:50:45 37° W 19:54:27 10° NNW
BREEZE-M R/B 4.4 19:46:22 10° W 19:51:12 70° SSW 20:00:20 25° ESE
Cosmos 1656 Rocket 4.1 19:45:50 10° NW 19:51:23 59° WSW 19:55:32 17° S
Cosmos 2297 4.0 19:47:51 10° NW 19:53:28 65° WSW 19:57:17 21° S
CSL-04 Debris 4.4 19:48:56 12° S 19:54:03 71° WSW 19:59:33 10° NNW
SPOT 5 2.9 19:54:01 45° E 19:54:43 49° ENE 19:58:56 10° N
Cosmos 1607 4.2 19:50:08 10° SW 19:56:36 76° NW 20:03:04 10° NE
Cosmos 2369 Rocket 2.4 19:52:30 10° NNW 19:58:13 72° WSW 20:01:28 26° SSE
ARIANE 6 FM1 Upper Stage 2.8 19:54:06 10° SSW 19:58:11 54° SE 19:58:11 54° SE
Aureole 3 Rocket 3.9 19:53:14 10° SSW 19:58:34 56° WNW 20:02:30 10° N
MOS 1-B 4.4 19:54:21 18° SSE 19:58:49 80° WSW 20:04:38 10° NNW
Okean 2 3.5 19:55:20 10° N 19:59:08 50° ENE 19:59:08 50° ENE
BREEZE-M DEB (TANK) 4.0 19:39:34 10° W 20:00:53 85° S 20:03:29 36° ESE
Terra 2.6 20:00:58 33° ENE 20:01:02 33° ENE 20:05:14 10° N
Aureole 3 4.1 19:58:40 10° N 20:03:08 50° ENE 20:03:54 46° ESE
CRYOSAT 2 4.2 19:58:33 10° N 20:03:27 70° E 20:05:19 37° SSE
Cosmos 1634 Rocket 4.0 20:00:12 10° S 20:06:31 89° W 20:12:54 10° N
Cosmos 1441 Rocket 3.4 20:03:44 15° SSW 20:06:35 61° WNW 20:10:07 10° N
Okean 1-7 3.2 20:03:25 10° N 20:07:26 51° ENE 20:07:26 51° ENE
Cosmos 2228 Rocket 3.3 20:03:30 10° NNW 20:08:05 72° W 20:10:04 33° S
Cosmos 1633 Rocket 2.9 20:09:43 65° ESE 20:10:00 68° E 20:14:24 10° NNE
Cosmos 1975 3.6 20:06:44 10° SSW 20:10:31 49° WNW 20:14:20 10° N
NOSS 3-4 (A) 4.3 20:04:31 10° NW 20:11:11 56° SW 20:15:59 24° SSE
NOSS 3-4 (C) 4.3 20:04:37 10° NW 20:11:18 56° SW 20:16:03 24° SSE
Resurs 01 Rocket 3.0 20:07:53 11° SSW 20:11:52 37° W 20:16:00 10° NNW
Cosmos 2084 Rocket 3.3 20:07:45 10° SW 20:12:04 90° SE 20:13:12 48° NE
MetOp-B 4.1 20:11:40 48° SE 20:13:06 70° ENE 20:18:28 10° N
Cosmos 1538 Rocket 4.2 20:13:37 50° E 20:13:37 50° E 20:18:33 10° NNE
RESURS DK-1 4.4 20:12:32 10° N 20:14:56 17° NE 20:14:56 17° NE
Okean-O 2.5 20:17:08 70° SSE 20:17:38 86° ENE 20:22:04 10° NNW
USA 306 2.9 20:14:57 10° WNW 20:17:50 61° WNW 20:17:50 61° WNW
Cosmos 1862 Rocket 3.9 20:16:01 10° NNW 20:20:27 66° W 20:21:39 45° SSW
MOS 1 Rocket 3.5 20:20:11 57° SE 20:21:12 73° ENE 20:26:36 10° N
SL-08 ROCKET BODY 4.5 20:16:09 10° N 20:22:14 59° ENE 20:23:16 52° ESE
ISS -2.6 20:19:44 10° WNW 20:22:09 44° WNW 20:22:09 44° WNW
Spot 2 Rocket 3.9 20:23:41 44° ENE 20:23:41 44° ENE 20:28:17 10° N
Cosmos 1707 Rocket 4.2 20:19:13 10° NNW 20:23:32 53° W 20:25:01 35° SSW
ERS-1 Rocket 2.9 20:26:13 62° E 20:26:26 63° ENE 20:31:24 10° N
IRS-1A Rocket 4.2 20:27:24 58° SE 20:28:29 74° ENE 20:34:06 10° NNW
Cosmos 1666 Rocket 3.8 20:28:15 41° SW 20:29:36 65° WNW 20:33:55 10° N
Cosmos 1470 Rocket 4.1 20:33:03 48° NNE 20:33:03 48° NNE 20:36:21 10° NNE
Cosmos 1703 Rocket 4.1 20:28:57 10° N 20:32:25 47° NNE 20:32:25 47° NNE
Cosmos 2142 Rocket 4.3 20:32:14 34° S 20:35:04 87° E 20:41:17 10° N
Cosmos 2279 Rocket 4.0 20:33:08 17° SSW 20:38:01 78° W 20:44:16 10° N
ACS3 Solar Sail 2.6 20:33:51 16° SSW 20:38:48 50° W 20:45:02 10° NNW
SL-16 R/B 3.4 20:33:51 10° WSW 20:39:14 43° NW 20:44:39 10° NNE
SPOT 3 Rocket 4.0 20:41:30 48° NE 20:41:30 48° NE 20:45:55 10° N
Meteor 2-5 Rocket 4.4 20:39:24 10° N 20:44:37 42° ENE 20:44:37 42° ENE
ATLAS CENTAUR R/B 4.2 20:44:36 10° NW 20:46:18 13° NNW 20:48:03 10° N
Cosmos 2180 Rocket 4.5 20:48:16 42° SSW 20:50:37 85° W 20:57:01 10° N
Cosmos 1943 3.1 20:49:01 33° SSW 20:51:42 85° WNW 20:57:25 10° NNE
Ariane Rocket 3.3 20:57:45 58° NNE 20:57:45 58° NNE 21:02:00 10° N
Cosmos 1697 Rocket 4.2 20:53:49 10° NNW 20:58:24 24° NE 20:58:31 24° NE
ATLAS 2AS CENTAUR R/B 3.4 20:55:57 10° NW 21:02:29 41° NNE 21:03:49 37° ENE
Cosmos 489 Rocket 4.4 20:56:25 10° NNW 21:02:49 77° ENE 21:02:58 77° E
Cosmos 1655 Rocket 3.9 20:56:58 10° N 21:03:25 77° E 21:03:30 77° E
IRS-1C Rocket 4.2 21:04:12 67° W 21:04:12 67° W 21:09:27 10° NNW
Okean O Rocket 4.1 21:18:23 14° WSW 21:19:52 16° W 21:22:36 10° NW
USA 267 3.7 21:18:34 44° NE 21:20:10 54° NNE 21:26:32 10° WNW
Cosmos 2056 Rocket 4.1 21:16:01 10° NNW 21:20:08 54° N 21:20:08 54° N
Terra 3.4 21:39:40 32° WNW 21:39:40 32° WNW 21:42:56 10° NNW
Cosmos 1980 Rocket 3.8 21:57:12 10° NNW 22:00:49 28° NNE 22:00:49 28° NNE
Cosmos 2344 3.9 22:06:40 10° NW 22:14:50 82° SW 22:15:07 81° SSW
Cosmos 1697 Rocket 4.3 22:37:22 10° NNW 22:40:13 31° NNW 22:40:13 31° NNW
ATLAS 2AS CENTAUR R/B 3.7 22:47:02 10° NW 22:51:13 39° NW 22:51:13 39° NW
USA 267 4.3 23:05:55 37° WNW 23:05:55 37° WNW 23:09:36 10° WNW
Cosmos 2322 Rocket 4.3 23:03:34 10° N 23:07:17 20° NNE 23:07:17 20° NNE
SL-16 R/B 4.1 23:32:00 10° NNW 23:34:52 26° N 23:34:52 26° N
CZ-3B R/B 4.2 23:21:17 10° WNW 23:36:26 60° WNW 23:36:26 60° WNW
Cosmos 1980 Rocket 4.4 23:41:01 10° NW 23:42:32 19° NW 23:42:32 19° NW
Cosmos 2333 Rocket 4.1 23:48:03 10° NNW 23:51:31 26° NNE 23:51:31 26° NNE
